EW4120 Weather Reports


Display with metric or nautical units.
time (UTC)temp
F
wind
direction
speed
MPH
gust
MPH
rain 1hr
in
rain 24hr
in
rain mn
in
humidity
%
barometer
mb
20260508233536 64 0.0 0.0 0.00 0.00 0.00 58 1014.1
20260508232538 66 0.0 0.0 0.00 0.00 0.00 54 1014.1
20260508231517 67 0.0 0.0 0.00 0.00 0.00 51 1014.2
20260508230538 69 0.0 1.0 0.00 0.00 0.00 48 1014.1
20260508225517 71 0.0 1.0 0.00 0.00 0.00 43 1014.2
20260508224517 71 0.0 1.0 0.00 0.00 0.00 40 1014.2
20260508223537 70 0.0 2.0 0.00 0.00 0.00 40 1014.2
20260508222538 69 0.0 1.0 0.00 0.00 0.00 44 1014.2
20260508221517 70 315 1.0 4.0 0.00 0.00 0.00 40 1014.0
20260508220517 70 315 1.0 4.0 0.00 0.00 0.00 40 1013.9
20260508215537 71 0.0 2.0 0.00 0.00 0.00 43 1013.8
20260508214558 72 293 1.0 7.0 0.00 0.00 0.00 41 1014.1
20260508213517 72 293 1.0 4.0 0.00 0.00 0.00 42 1014.1
20260508212517 72 315 1.0 4.0 0.00 0.00 0.00 43 1014.3
20260508211517 73 0.0 2.0 0.00 0.00 0.00 39 1014.1
20260508210517 72 0.0 2.0 0.00 0.00 0.00 43 1014.1
20260508205517 73 315 1.0 3.0 0.00 0.00 0.00 40 1014.3
20260508204557 73 0.0 1.0 0.00 0.00 0.00 41 1014.3
20260508203517 72 0.0 4.0 0.00 0.00 0.00 44 1014.4
20260508202517 72 315 1.0 5.0 0.00 0.00 0.00 39 1015.0
20260508201517 72 0.0 1.0 0.00 0.00 0.00 40 1014.9
20260508200537 72 315 1.0 6.0 0.00 0.00 0.00 40 1014.9
20260508195618 72 45 1.0 3.0 0.00 0.00 0.00 44 1015.0
20260508194517 72 293 1.0 3.0 0.00 0.00 0.00 41 1015.0
20260508193517 71 0.0 2.0 0.00 0.00 0.00 37 1015.2
20260508192557 72 23 1.0 4.0 0.00 0.00 0.00 41 1015.4
20260508191537 71 315 1.0 5.0 0.00 0.00 0.00 48 1015.6
20260508190537 70 0.0 4.0 0.00 0.00 0.00 39 1015.4
20260508185517 70 315 1.0 4.0 0.00 0.00 0.00 40 1015.6
20260508184517 70 0.0 4.0 0.00 0.00 0.00 44 1015.8
20260508183537 70 293 1.0 4.0 0.00 0.00 0.00 45 1015.9
20260508182517 69 0.0 1.0 0.00 0.00 0.00 43 1015.8
20260508181517 69 113 1.0 2.0 0.00 0.00 0.00 42 1016.1
20260508180517 68 23 1.0 5.0 0.00 0.00 0.00 43 1016.2
20260508175537 68 315 1.0 4.0 0.00 0.00 0.00 48 1016.3
20260508174537 68 293 1.0 2.0 0.00 0.00 0.00 45 1016.5
20260508173537 68 0.0 3.0 0.00 0.00 0.00 44 1016.7
20260508172557 66 270 1.0 2.0 0.00 0.00 0.00 41 1016.7
20260508171557 66 293 1.0 3.0 0.00 0.00 0.00 42 1016.8
20260508170517 66 23 1.0 4.0 0.00 0.00 0.00 42 1016.8
20260508165517 66 90 1.0 7.0 0.00 0.00 0.00 46 1016.9
20260508164517 65 45 2.0 6.0 0.00 0.00 0.00 48 1017.1
20260508163517 65 0.0 2.0 0.00 0.00 0.00 47 1017.4
20260508162517 65 0.0 2.0 0.00 0.00 0.00 48 1017.6
20260508161517 64 45 2.0 5.0 0.00 0.00 0.00 47 1017.7
20260508160517 65 0.0 2.0 0.00 0.00 0.00 53 1017.7
20260508155517 64 23 1.0 3.0 0.00 0.00 0.00 55 1017.9
20260508154517 63 23 1.0 3.0 0.00 0.00 0.00 52 1018.0
20260508153517 63 270 1.0 2.0 0.00 0.00 0.00 51 1018.0
20260508152537 62 315 1.0 2.0 0.00 0.00 0.00 51 1018.2
20260508151537 61 293 1.0 4.0 0.00 0.00 0.00 51 1018.2
20260508150517 61 23 1.0 3.0 0.00 0.00 0.00 50 1018.2
20260508145517 61 45 1.0 5.0 0.00 0.00 0.00 53 1018.2
20260508144537 60 315 1.0 4.0 0.00 0.00 0.00 58 1018.2
20260508143637 59 23 1.0 4.0 0.00 0.00 0.00 59 1018.1
20260508142516 59 0.0 2.0 0.00 0.00 0.00 62 1018.1
20260508141516 58 23 1.0 4.0 0.00 0.00 0.00 63 1018.1
20260508140536 57 0.0 3.0 0.00 0.00 0.00 73 1018.0
20260508135537 56 45 1.0 3.0 0.00 0.00 0.00 79 1017.9
20260508133516 52 0.0 1.0 0.00 0.00 0.00 98 1017.8
20260508132517 50 0.0 3.0 0.00 0.00 0.00 98 1017.6
20260508130516 51 0.0 0.0 0.00 0.00 0.00 99 1017.7
20260508125557 51 0.0 0.0 0.00 0.00 0.00 99 1017.6
20260508124516 49 0.0 0.0 0.00 0.00 0.00 99 1017.6
20260508123637 48 0.0 0.0 0.00 0.00 0.00 99 1017.5
20260508122516 46 0.0 0.0 0.00 0.00 0.00 99 1017.4
20260508121516 45 0.0 0.0 0.00 0.00 0.00 99 1017.3
20260508120516 44 0.0 0.0 0.00 0.00 0.00 98 1017.1
20260508115516 43 0.0 0.0 0.00 0.00 0.00 98 1017.0
20260508114617 42 0.0 0.0 0.00 0.00 0.00 98 1017.0
20260508113536 41 0.0 0.0 0.00 0.00 0.00 98 1016.8
20260508112516 40 0.0 0.0 0.00 0.00 0.00 98 1016.6
20260508111536 40 0.0 0.0 0.00 0.00 0.00 98 1016.4
20260508110536 40 0.0 0.0 0.00 0.00 0.00 98 1016.1
20260508105516 39 0.0 0.0 0.00 0.00 0.00 98 1016.0
20260508104516 39 0.0 0.0 0.00 0.00 0.00 97 1015.9
20260508102516 39 0.0 0.0 0.00 0.00 0.00 97 1015.7
20260508101536 40 0.0 0.0 0.00 0.00 0.00 97 1015.5
20260508100516 39 0.0 0.0 0.00 0.00 0.00 97 1015.5
20260508095516 40 0.0 0.0 0.00 0.00 0.00 97 1015.3
20260508093536 40 0.0 0.0 0.00 0.00 0.00 97 1015.1
20260508092536 41 0.0 0.0 0.00 0.00 0.00 97 1014.9
20260508091516 41 0.0 0.0 0.00 0.00 0.00 97 1015.0
20260508090516 41 0.0 0.0 0.00 0.00 0.00 97 1014.9
20260508085516 41 0.0 0.0 0.00 0.00 0.00 97 1014.9
20260508084616 42 0.0 0.0 0.00 0.00 0.00 97 1014.8
20260508083516 42 0.0 0.0 0.00 0.00 0.00 97 1014.7
20260508082516 42 0.0 0.0 0.00 0.00 0.00 97 1014.5
20260508081536 42 0.0 0.0 0.00 0.00 0.00 97 1014.5
20260508080516 42 0.0 0.0 0.00 0.00 0.00 97 1014.4
20260508075536 42 0.0 0.0 0.00 0.00 0.00 97 1014.5
20260508074516 42 0.0 0.0 0.00 0.00 0.00 97 1014.5
20260508073516 42 0.0 0.0 0.00 0.00 0.00 97 1014.5
20260508072516 43 0.0 0.0 0.00 0.00 0.00 97 1014.3
20260508071516 43 0.0 0.0 0.00 0.00 0.00 97 1014.2
20260508070516 43 0.0 0.0 0.00 0.00 0.00 97 1014.1
20260508065516 43 0.0 0.0 0.00 0.00 0.00 97 1014.0
20260508064536 43 0.0 0.0 0.00 0.00 0.00 97 1014.1
20260508063516 44 0.0 0.0 0.00 0.00 0.00 97 1014.1
20260508062636 44 0.0 0.0 0.00 0.00 0.00 97 1014.2
20260508061516 44 0.0 0.0 0.00 0.00 0.00 97 1014.1
20260508060516 45 0.0 0.0 0.00 0.00 0.00 97 1014.2
20260508055536 45 0.0 0.0 0.00 0.00 0.00 97 1014.1
20260508054536 45 0.0 0.0 0.00 0.00 0.00 97 1014.1
20260508053516 45 0.0 0.0 0.00 0.00 0.00 97 1014.2
20260508052516 45 0.0 0.0 0.00 0.00 0.00 97 1014.0
20260508051618 46 0.0 0.0 0.00 0.00 0.00 97 1014.2
20260508050538 46 0.0 0.0 0.00 0.00 0.00 97 1014.2
20260508044517 46 0.0 0.0 0.00 0.00 0.00 97 1014.0
20260508043538 46 0.0 0.0 0.00 0.00 0.00 97 1013.9
20260508042517 47 0.0 0.0 0.00 0.00 0.00 96 1013.8
20260508041558 47 0.0 0.0 0.00 0.00 0.00 96
20260508040516 48 0.0 0.0 0.00 0.00 0.00 97
20260508035516 48 0.0 0.0 0.00 0.00 0.00 97
20260508034556 48 0.0 0.0 0.00 0.00 0.00 97
20260508033516 49 0.0 0.0 0.00 0.00 0.00 97
20260508032536 49 0.0 0.0 0.00 0.00 0.00 97
20260508031636 49 0.0 0.0 0.00 0.00 0.00 97
20260508030536 49 0.0 0.0 0.00 0.00 0.00 96
20260508024516 50 0.0 0.0 0.00 0.00 0.00 96
20260508023556 50 0.0 0.0 0.00 0.00 0.00 97
20260508022636 50 0.0 0.0 0.00 0.00 0.00 96
20260508021517 51 0.0 0.0 0.00 0.00 0.00 96
20260508020516 51 0.0 0.0 0.00 0.00 0.00 95
20260508015536 52 0.0 0.0 0.00 0.00 0.00 95
20260508014516 52 0.0 0.0 0.00 0.00 0.00 95
20260508013536 53 0.0 0.0 0.00 0.00 0.00 95
20260508012516 53 0.0 0.0 0.00 0.00 0.00 95
20260508011516 54 0.0 0.0 0.00 0.00 0.00 95
20260508010636 55 0.0 0.0 0.00 0.00 0.00 95
20260508005616 56 0.0 0.0 0.00 0.00 0.00 95
20260508004516 56 0.0 0.0 0.00 0.00 0.00 95
20260508003516 56 0.0 0.0 0.00 0.00 0.00 95
20260508002538 57 0.0 1.0 0.00 0.00 0.00 94
20260508001518 57 0.0 1.0 0.00 0.00 0.00 94
20260508000538 57 0.0 1.0 0.00 0.00 0.00 94
20260507235518 57 0.0 0.0 0.00 0.00 0.00 94
20260507234517 58 0.0 1.0 0.00 0.00 0.00 94